Weather History for Lancaster, PA

Change the Weather History Date:

Friday, May 30, 2014

  Actual Average Record
Temperature  
Mean Temperature 64 °F -  
Max Temperature 75 °F 78 °F 92 °F (1987)
Min Temperature 53 °F 55 °F 37 °F (1949)
Degree Days  
Heating Degree Days 1    
Growing Degree Days 14 (Base 50)    
Moisture  
Dew Point 52 °F    
Average Humidity 75    
Maximum Humidity 96    
Minimum Humidity 41    
Precipitation  
Precipitation 0.00 in - - ()
Sea Level Pressure  
Sea Level Pressure 30.11 in    
Wind  
Wind Speed 3 mph (NW)    
Max Wind Speed 14 mph    
Max Gust Speed -    
Visibility 7 miles    
Events Rain    
Averages and records for this station are not official NWS values.
T = Trace of Precipitation, MM = Missing Value Source: NWS Daily Summary

Daily Weather History Graph

Daily Weather History Graph

Search for Another Location

Airport:

Trip Planner

Search our weather history database for the weather conditions in past years. The results will help you decide how hot, cold, wet, or windy it might be!

Date:

Astronomy

May. 30, 2014 Rise Set
Actual Time 5:38 AM EDT 8:26 PM EDT
Civil Twilight 5:06 AM EDT 8:59 PM EDT
Nautical Twilight 4:26 AM EDT 9:39 PM EDT
Astronomical Twilight 3:40 AM EDT 10:25 PM EDT
Moon 7:21 AM EDT (5/30) 10:01 PM EDT (5/30)
Length of Visible Light 15h 52m
Length of Day
14h 47m
Waxing Crescent, 4% of the Moon is Illuminated
May 30
Waxing Crescent
Jun 5
First Quarter
Jun 13
Full
Jun 19
Last Quarter
Jun 27
New

Hourly Weather History & Observations

Time (EDT) Temp. Dew Point Humidity Pressure Visibility Wind Dir Wind Speed Gust Speed Precip Events Conditions
12:37 AM 54.0 °F 52.0 °F 93% 30.16 in 2.5 mi Calm Calm - N/A   Overcast
12:50 AM 53.6 °F 51.8 °F 94% 30.16 in 1.5 mi Calm Calm - N/A   Overcast
12:53 AM 53.1 °F 52.0 °F 96% 30.16 in 1.5 mi Calm Calm - N/A   Overcast
1:21 AM 53.1 °F 52.0 °F 96% 30.15 in 2.5 mi Calm Calm - N/A   Overcast
1:40 AM 53.1 °F 52.0 °F 96% 30.15 in 3.0 mi Calm Calm - N/A   Overcast
1:53 AM 54.0 °F 52.0 °F 93% 30.14 in 3.0 mi Calm Calm - N/A   Overcast
2:17 AM 54.0 °F 52.0 °F 93% 30.13 in 2.5 mi Calm Calm - N/A   Overcast
2:28 AM 53.1 °F 52.0 °F 96% 30.13 in 3.0 mi Calm Calm - N/A   Overcast
2:50 AM 53.6 °F 51.8 °F 94% 30.13 in 4.0 mi Calm Calm - N/A   Overcast
2:53 AM 53.1 °F 52.0 °F 96% 30.13 in 4.0 mi NW 3.5 mph - N/A   Overcast
3:53 AM 53.1 °F 52.0 °F 96% 30.13 in 4.0 mi WNW 3.5 mph - N/A   Overcast
4:25 AM 54.0 °F 52.0 °F 93% 30.13 in 4.0 mi NNW 3.5 mph - N/A   Overcast
4:50 AM 53.6 °F 51.8 °F 94% 30.13 in 5.0 mi NNW 3.5 mph - N/A   Overcast
4:53 AM 54.0 °F 52.0 °F 93% 30.13 in 5.0 mi NNW 4.6 mph - N/A   Overcast
5:53 AM 54.0 °F 52.0 °F 93% 30.12 in 4.0 mi WNW 3.5 mph - N/A   Overcast
6:53 AM 54.0 °F 52.0 °F 93% 30.13 in 3.0 mi WNW 5.8 mph - N/A   Overcast
7:53 AM 55.9 °F 52.0 °F 87% 30.14 in 6.0 mi NW 6.9 mph - N/A   Overcast
8:53 AM 59.0 °F 53.1 °F 81% 30.14 in 7.0 mi NW 8.1 mph - N/A   Overcast
9:53 AM 60.1 °F 53.1 °F 78% 30.14 in 8.0 mi NNW 12.7 mph - N/A   Overcast
10:27 AM 61.0 °F 53.1 °F 75% 30.14 in 9.0 mi NW 5.8 mph - N/A   Overcast
10:53 AM 62.1 °F 53.1 °F 72% 30.14 in 9.0 mi North 8.1 mph - N/A   Overcast
11:53 AM 64.9 °F 53.1 °F 65% 30.13 in 9.0 mi Variable 5.8 mph - N/A   Mostly Cloudy
12:29 PM 68.0 °F 54.0 °F 61% 30.12 in 10.0 mi NE 8.1 mph - N/A   Mostly Cloudy
12:53 PM 69.1 °F 54.0 °F 58% 30.12 in 10.0 mi North 6.9 mph - N/A   Mostly Cloudy
1:53 PM 72.0 °F 53.1 °F 51% 30.10 in 10.0 mi North 9.2 mph - N/A   Scattered Clouds
2:53 PM 73.0 °F 52.0 °F 48% 30.09 in 10.0 mi Variable 3.5 mph - N/A   Scattered Clouds
3:53 PM 73.9 °F 52.0 °F 46% 30.07 in 10.0 mi NW 6.9 mph - N/A   Partly Cloudy
4:53 PM 75.0 °F 50.0 °F 41% 30.06 in 10.0 mi NW 10.4 mph - N/A   Scattered Clouds
5:53 PM 75.0 °F 51.1 °F 43% 30.04 in 10.0 mi WNW 8.1 mph - N/A   Clear
6:53 PM 72.0 °F 51.1 °F 48% 30.03 in 10.0 mi West 6.9 mph - N/A   Scattered Clouds
7:53 PM 70.0 °F 52.0 °F 53% 30.03 in 10.0 mi WNW 6.9 mph - N/A   Partly Cloudy
8:53 PM 69.1 °F 51.1 °F 53% 30.04 in 10.0 mi WNW 6.9 mph - N/A   Overcast
9:53 PM 69.1 °F 52.0 °F 54% 30.06 in 10.0 mi NNW 8.1 mph - 0.00 in Rain Light Rain
10:53 PM 69.1 °F 46.0 °F 44% 30.09 in 10.0 mi North 13.8 mph - 0.00 in   Mostly Cloudy
11:53 PM 64.9 °F 46.9 °F 52% 30.11 in 10.0 mi North 6.9 mph - N/A   Clear